Showing default

FOSSASAT2E20 (TAT-O), 63003

Orbit data source: Space-Track

FOSSASAT2E20 (TAT-O), 63003 is a payload satellite owned by Fossa Systems (ES) in SSO that was launched on Tue, 14 Jan 2025 UTC via an FALCON 9 launch vehicle from the Air Force Western Test Range (AFWTR). Payload-class satellites include a variety of spacecraft equipped with specific instruments for various scientific and technological missions. These include communications satellites like Starlink; space stations such as the ISS; scientific satellites like the Hubble; Earth observation satellites from companies like Planet Labs, Umbra, and HawkEye 360; GPS; miniature CubeSats for education and research; and military/defense satellites.

Loading next visibility...
Identifier
63003, 2025-009DN
Orbit
SSO
Country
Flag of ESES / SPN
Related business
Manufacturer
Fossa Systems
Mission
Operational Commercial Communications
Bus & Motor
CUBESAT 3U, Unknown motor
Mass
4 kg wet, 4 kg dry
Launch date (UTC)
2025-01-14 (1 year ago)
Launch vehicle
FALCON 9
Launch site
Air Force Western Test Range (AFWTR)
Object type
Payload
Rocket body
Debris
Shape & HBR
Box + 2 Pan, 0.4 m
Radar Cross Section
0.035 m², Medium (>0.1 m² and < 1m²)

Expand to show TLE details & history
Last TLE update: 1 day ago

TLE from 1 day ago
0 FOSSASAT2E20 (TAT-O)
1 63003U 25009DN  26034.16066339  .00015865  00000-0  62206-3 0  9991
2 63003  97.3309 112.3968 0004270  89.9759 270.1969 15.25830641116046
Epoch: 2026-02-03T03:51Z
TLE epoch observation values (Epoch: 2026-02-03T03:51:21.316Z)
Latitude
-0.00003°
Longitude
-78.78759°
Altitude
491.384 km
Speed
7.619 km/s
True Right ascension
07h 29m 35s
True Declination
0° 00' 00"
Sunlit
Object was in full shadow at epoch
Visualization orbit readout
Latitude
Unknown
Longitude
Unknown
Altitude
Unknown
Speed
Unknown
Apparent Right ascension
Unknown
Apparent Declination
Unknown
Sunlit
N/A
Visualization observer readout
Local Sidereal Time
11:11:30
Azimuth
Unknown
Elevation
Unknown
Doppler factor
Unknown
Orbital elements
Apogee altitude
488.178 km
Perigee altitude
482.316 km
Semi-major axis
6,863.384 km
Eccentricity
0.00043
Inclination
97.3309°
RAAN
112.3968°
Arg. of periapsis
89.9759°
True anomaly
270.14797°
Mean anomaly
270.1969°
Eccentric anomaly
270.17243°
Mean motion
3.81712 °/min
Orbital period
94.31 mins
BSTAR
0.00062206
Loading maneuver chart data...
Computing Atmospheric mass density...
Loading historical data...
Loading historical data...
Loading historical data...
Loading historical data...
Loading historical data...
Loading historical data...
Loading historical data...

Documentation

Showing up to 5 results
|